EHI
7 4 2 1 0 0 0 0 0 0 0 0 0 0 0 0 0 0 0 0 0 0 0 0 0 0 0 0 0 0 0 0 0 0 0 0 0 0 0 0 0 0 0
22 10 1 1 0 0 0 0 0 0 0 0 0 0 0 0 0 0 0 0 0 0 0 0 0 0 0 0 0 0 0 0 0 0 0 0 0 0 0 0 0 0 0
37 15 0 0 0 0 0 0 0 0 0 0 0 0 0 0 0 0 0 0 0 0 0 0 0 0 0 0 0 0 0 0 0 0 0 0 0 0 0 0 0 0 0
31 12 0 0 0 0 0 0 0 0 0 0 0 0 0 0 0 0 0 0 0 0 0 0 0 0 0 0 0 0 0 0 0 0 0 0 0 0 0 0 0 0 0
13 6 1 0 0 0 0 0 0 0 0 0 0 0 0 0 0 0 0 0 0 0 0 0 0 0 0 0 0 0 0 0 0 0 0 0 0 0 0 0 0 0 0
14 13 8 3 2 0 0 0 0 0 0 0 0 0 0 0 0 0 0 0 0 0 0 0 0 0 0 0 0 0 0 0 0 0 0 0 0 0 0 0 0 0 0
38 34 20 12 7 1 0 0 0 0 0 0 0 0 0 0 0 0 0 0 0 0 0 0 0 0 0 0 0 0 0 0 0 0 0 0 0 0 0 0 0 0 0
61 49 28 17 11 2 0 0 0 0 0 0 0 0 0 0 0 0 0 0 0 0 0 0 0 0 0 0 0 0 0 0 0 0 0 0 0 0 0 0 0 0 0
60 51 26 11 6 1 0 0 0 0 0 0 0 0 0 0 0 0 0 0 0 0 0 0 0 0 0 0 0 0 0 0 0 0 0 0 0 0 0 0 0 0 0
40 39 19 3 1 0 0 0 0 0 0 0 0 0 0 0 0 0 0 0 0 0 0 0 0 0 0 0 0 0 0 0 0 0 0 0 0 0 0 0 0 0 0
17 20 11 1 0 0 0 0 0 0 0 0 0 0 0 0 0 0 0 0 0 0 0 0 0 0 0 0 0 0 0 0 0 0 0 0 0 0 0 0 0 0 0
3 6 11 15 16 13 9 4 0 0 0 0 0 0 0 0 0 0 0 0 0 0 0 0 0 0 0 0 0 0 0 0 0 0 0 0 0 0 0 0 0 0 0
0 3 21 45 52 44 31 11 0 0 0 0 0 0 0 0 0 0 0 0 0 0 0 0 0 0 0 0 0 0 0 0 0 0 0 0 0 0 0 0 0 0 0
3 11 37 71 85 78 54 20 1 0 0 0 0 0 0 0 0 0 0 0 0 0 0 0 0 0 0 0 0 0 0 0 0 0 0 0 0 0 0 0 0 0 0
9 27 57 85 97 94 74 38 10 1 0 0 0 0 0 0 0 0 0 0 0 0 0 0 0 0 0 0 0 0 0 0 0 0 0 0 0 0 0 0 0 0 0
10 32 67 90 99 99 90 63 27 6 1 0 0 0 0 0 0 0 0 0 0 0 0 0 0 0 0 0 0 0 0 0 0 0 0 0 0 0 0 0 0 0 0
5 20 53 83 97 100 98 82 49 19 5 1 0 0 0 0 0 0 0 0 0 0 0 0 0 0 0 0 0 0 0 0 0 0 0 0 0 0 0 0 0 0 0
0 7 31 68 92 99 99 89 66 37 19 9 3 0 0 0 0 0 0 0 0 0 0 0 0 0 0 0 0 0 0 0 0 0 0 0 0 0 0 0 0 0 0
0 1 16 50 81 96 98 91 74 56 43 28 12 2 0 0 0 0 0 0 0 0 0 0 0 0 0 0 0 0 0 0 0 0 0 0 0 0 0 0 0 0 0
0 0 7 29 62 88 97 92 80 73 66 47 18 2 0 0 0 0 0 0 0 0 0 0 0 0 0 0 0 0 0 0 0 0 0 0 0 0 0 0 0 0 0
0 0 2 12 37 71 93 96 91 82 67 40 14 1 0 0 0 0 0 0 0 0 0 0 0 0 0 0 0 0 0 0 0 0 0 0 0 0 0 0 0 0 0
0 0 0 3 19 53 86 96 86 65 37 17 5 0 0 0 0 0 0 0 0 0 0 0 0 0 0 0 0 0 0 0 0 0 0 0 0 0 0 0 0 0 0
0 0 0 2 14 45 80 87 63 29 9 2 0 0 0 0 0 0 0 0 0 0 0 0 0 0 0 0 0 0 0 0 0 0 0 0 0 0 0 0 0 0 0
0 0 0 3 19 51 79 74 39 9 0 0 0 0 0 0 0 0 0 0 0 0 0 0 0 0 0 0 0 0 0 0 0 0 0 0 0 0 0 0 0 0 0
0 0 1 7 27 57 75 58 24 3 0 0 0 0 0 0 0 0 0 0 0 0 0 0 0 0 0 0 0 0 0 0 0 0 0 0 0 0 0 0 0 0 0
0 0 2 10 32 59 68 47 16 1 0 0 0 0 0 0 0 0 0 0 0 0 0 0 0 0 0 0 0 0 0 0 0 0 0 0 0 0 0 0 0 0 0
Wind_Speed
10 14 19 18 16 14 13 12 11 10 9 9 9 11 13 13 13 12 12 11 11 10 10 10 12 14 15 14 13 12 11 9 7 5 4 5 7 8 8 7 5 3 5
15 16 19 18 17 15 13 12 11 10 8 9 9 11 12 12 11 11 11 11 11 11 11 11 11 12 13 12 11 10 9 7 5 4 2 1 5 8 8 7 6 4 6
17 17 16 18 17 15 14 13 11 10 10 11 11 12 12 11 11 11 11 12 12 11 11 12 12 11 11 10 10 9 8 6 4 6 7 2 4 8 7 6 6 4 4
18 16 15 18 17 16 15 13 11 10 11 12 12 12 11 10 10 10 11 11 11 11 11 11 11 10 10 9 8 8 7 4 5 7 4 3 4 7 6 5 5 6 5
16 15 16 18 17 16 15 13 12 11 11 11 11 10 10 9 9 9 10 10 10 10 9 9 9 8 8 7 7 6 6 5 7 8 3 4 6 7 6 4 4 5 5
14 15 17 17 17 16 15 14 13 11 11 11 10 9 8 7 7 7 9 10 9 8 8 8 8 7 7 6 6 6 5 6 9 3 3 4 5 6 6 5 4 4 5
14 17 17 18 18 16 15 13 13 12 11 10 10 9 8 6 6 8 11 10 8 7 7 7 7 6 6 6 6 5 4 6 6 2 2 5 5 7 5 6 6 6 6
14 17 15 18 17 16 15 14 13 12 12 10 9 9 8 6 5 9 12 11 8 7 6 6 6 7 7 6 5 4 3 6 7 4 4 7 7 7 7 7 8 8 8
13 16 13 13 13 15 15 14 12 11 11 10 9 9 9 8 9 12 12 10 8 7 7 7 8 7 7 6 5 4 5 7 5 3 6 5 8 8 8 8 8 9 9
10 14 13 12 11 10 10 13 13 11 10 9 9 10 9 8 10 11 10 10 9 9 8 8 7 6 6 5 3 3 7 8 3 4 5 5 10 9 8 7 8 9 11
7 11 13 13 12 11 10 12 11 11 10 9 9 10 9 5 6 7 10 10 10 10 8 7 5 5 4 3 1 4 6 4 5 5 4 8 9 7 7 10 11 13 15
6 7 11 13 12 11 10 9 6 7 7 6 6 7 5 4 5 9 10 10 10 10 8 6 4 2 2 1 2 4 2 5 4 5 5 11 9 10 12 14 14 14 14
10 8 7 10 11 10 8 8 6 5 6 7 9 8 5 5 5 6 4 5 5 7 4 4 2 1 3 2 2 3 3 2 2 5 6 13 11 12 13 14 14 14 13
13 11 8 8 9 9 8 8 6 5 6 5 6 8 4 3 4 4 4 5 4 3 2 2 1 3 4 4 4 4 5 3 3 4 6 13 12 12 13 13 13 13 13
8 12 10 9 9 8 8 6 6 6 6 5 5 5 6 4 3 4 4 3 4 3 3 3 4 4 4 4 4 4 4 4 4 6 5 12 13 12 12 12 12 12 12
7 10 11 11 10 9 8 6 6 6 6 5 5 5 6 5 4 5 5 4 4 4 3 3 4 3 3 3 2 3 3 3 4 6 5 7 11 11 11 11 12 12 12
8 9 11 12 11 11 9 7 6 6 6 6 6 6 6 6 6 6 5 4 3 3 4 4 4 3 3 3 3 3 2 3 2 4 6 4 4 7 8 9 11 12 12
7 9 11 11 12 12 10 8 5 5 7 6 7 6 7 8 8 6 5 4 4 4 4 3 3 3 3 4 3 3 2 1 2 3 4 5 3 3 3 6 9 10 11
9 8 10 12 13 13 11 8 7 6 7 7 7 6 7 9 9 7 5 4 5 4 4 4 4 3 3 3 3 1 1 0 2 2 3 4 4 2 1 3 8 9 10
9 8 9 12 12 13 11 8 6 6 6 6 7 8 10 9 9 8 6 6 6 4 4 4 3 3 3 2 3 1 0 1 1 1 2 2 3 3 2 2 3 5 10
8 8 8 10 11 11 10 10 9 8 6 6 6 10 10 10 10 8 7 7 6 4 4 4 3 4 3 3 3 3 2 1 1 1 2 1 0 1 1 1 2 2 3
9 8 8 8 11 11 10 9 7 5 5 5 5 7 9 10 9 8 9 7 6 5 6 5 3 3 2 3 2 2 3 3 2 1 1 1 0 1 1 2 2 2 2
10 9 8 9 10 11 11 8 7 6 5 4 5 5 6 8 8 8 9 8 7 6 5 5 4 4 2 2 3 3 2 1 4 4 2 0 0 1 1 2 3 2 3
11 10 9 9 10 12 13 12 14 11 8 7 6 5 6 7 8 9 9 9 7 6 6 5 5 3 2 2 1 2 1 2 0 4 4 3 3 3 4 3 3 3 3
9 10 10 10 10 12 13 14 14 9 7 9 9 9 7 6 8 10 10 8 8 6 7 6 5 4 2 2 2 1 1 1 2 2 4 4 4 4 4 5 4 4 4
6 6 8 11 11 12 13 13 13 13 13 15 14 12 9 7 7 9 10 8 7 7 6 6 5 4 3 2 1 1 1 0 1 1 3 4 5 4 5 5 6 5 4
Wind_Direction
130 138 145 140 136 132 125 117 106 99 98 103 109 116 116 112 106 99 89 79 68 61 61 60 56 57 65 73 75 72 68 60 53 42 47 65 70 56 46 39 12 355 66
134 139 146 141 138 134 128 119 112 108 108 111 112 115 115 111 107 103 92 79 70 66 67 66 63 61 62 64 64 63 58 49 33 353 336 125 96 71 53 40 25 27 34
132 139 145 141 139 135 129 123 118 114 114 111 108 109 110 109 109 105 93 81 73 71 72 71 68 66 65 65 64 61 55 42 359 322 307 216 136 77 55 32 17 15 10
132 141 144 143 142 138 134 129 124 121 120 115 112 113 111 110 112 109 97 87 80 79 78 75 71 69 67 64 61 57 49 24 329 319 312 101 104 75 51 24 3 358 347
135 145 141 146 145 142 139 136 132 129 128 121 114 111 110 113 115 112 103 97 91 87 81 75 70 68 66 65 60 52 39 359 327 304 296 84 90 63 43 18 354 338 331
140 137 142 147 147 146 145 144 141 137 136 126 114 109 107 113 120 117 112 110 102 89 76 66 62 63 64 64 61 53 28 344 318 309 31 69 89 48 26 1 342 326 311
139 134 149 150 152 152 151 150 148 146 145 136 125 115 106 106 121 129 127 121 109 89 71 60 59 64 67 64 61 54 19 326 299 299 70 77 66 36 5 350 348 339 325
132 137 150 154 156 156 155 154 155 155 155 150 139 125 107 95 115 135 132 126 112 91 74 65 67 73 72 64 58 43 344 310 327 350 61 80 45 22 1 0 5 1 355
134 139 149 157 160 160 158 156 159 161 162 160 154 133 114 97 106 126 130 126 114 99 86 81 83 84 83 75 56 12 331 323 313 327 64 63 25 12 2 4 5 360 358
136 142 154 159 163 163 162 159 160 162 163 163 152 137 134 125 122 125 120 120 117 110 101 96 99 102 100 91 60 345 329 323 325 38 62 37 20 3 1 16 24 31 36
149 151 159 164 167 166 166 163 159 159 162 159 147 154 156 166 154 133 122 124 124 122 117 115 121 130 127 115 5 325 332 344 354 64 45 27 16 11 37 53 57 57 54
177 175 165 168 166 166 166 157 165 167 162 170 170 176 195 191 138 129 132 132 135 132 129 137 153 208 201 114 324 323 20 359 356 70 40 38 41 58 66 65 59 54 52
178 185 177 160 160 163 155 163 170 171 167 192 181 187 180 125 121 133 137 136 143 147 153 171 187 94 60 65 7 11 20 357 12 72 45 51 58 65 66 60 54 48 44
173 175 176 154 156 162 161 171 168 168 169 192 172 170 148 140 166 165 155 161 154 139 112 89 69 67 41 38 34 20 6 3 51 93 62 61 60 63 60 55 48 40 33
169 168 172 163 165 168 166 171 171 171 168 177 157 159 149 147 166 129 104 104 103 109 104 71 55 45 37 34 21 22 4 5 51 98 81 75 68 64 57 50 41 31 22
184 167 168 170 171 169 171 173 176 174 164 166 154 166 156 154 142 111 99 92 88 86 80 78 74 48 46 29 358 25 10 9 55 105 116 88 81 71 57 45 33 23 14
194 177 171 173 173 172 174 177 179 175 166 163 158 171 162 139 122 114 113 112 113 105 83 60 61 49 46 12 5 41 40 18 29 105 125 126 103 82 62 40 24 14 7
210 186 179 175 172 170 173 181 184 180 169 164 160 167 152 131 125 119 122 124 119 100 88 74 43 51 45 24 356 358 357 68 38 76 93 97 98 83 58 31 14 3 358
225 200 179 170 171 169 170 179 190 188 172 165 162 158 139 128 127 127 128 129 114 99 93 86 58 53 42 7 322 307 349 153 119 95 107 113 118 112 56 12 8 355 346
230 213 182 169 169 165 166 175 190 193 174 161 151 141 133 133 134 130 134 127 112 108 110 111 111 74 43 348 320 321 222 115 143 173 136 129 162 173 134 56 22 356 346
233 221 191 172 170 163 167 179 188 189 165 142 133 136 136 140 140 140 135 125 123 123 119 112 113 88 32 355 10 347 296 220 204 191 145 92 12 162 123 63 50 13 331
235 221 198 176 172 169 171 180 181 148 121 109 117 126 137 143 143 141 133 128 122 114 99 89 86 104 61 32 50 24 358 344 327 276 148 166 292 37 36 23 8 324 316
228 225 206 190 177 169 163 159 136 108 94 96 114 127 139 142 139 135 130 125 125 119 117 112 96 94 118 66 62 85 81 324 322 320 295 119 335 322 307 295 278 278 306
221 217 211 195 180 167 163 167 164 165 159 160 146 136 137 137 135 130 127 127 122 118 120 117 103 97 92 99 78 64 108 129 79 319 320 335 1 339 311 298 294 281 277
225 213 205 193 177 165 168 172 171 166 141 131 133 139 141 138 130 126 125 124 123 121 118 113 106 91 83 88 78 53 28 43 186 223 284 307 325 315 315 305 289 272 261
249 226 205 188 172 165 169 172 170 165 152 147 150 152 151 141 130 126 124 122 119 116 116 117 112 100 89 86 69 82 123 136 309 285 283 298 294 290 298 287 280 264 249